• In Spain
  • List of Countries
  • For 7 days
  • Water Temperature
  • Satellite Maps
  • Weather Map
  • Weather Widgets
  • user-avatar
    Login

    Hourly Weather Sao Joao da Talha

    Today, 17 December, Sunday

    Time Temperature Precipitation Wind Pressure Humidity
    00:00 +5°C° 0 mm 4 mps 769 mmHg 69%
    01:00 +5°C° 0 mm 4 mps 769 mmHg 69%
    02:00 +5°C° 0 mm 4 mps 769 mmHg 69%
    03:00 +4°C° 0 mm 4 mps 770 mmHg 69%
    04:00 +4°C° 0 mm 4 mps 770 mmHg 69%
    05:00 +4°C° 0 mm 4 mps 770 mmHg 69%
    06:00 +4°C° 0 mm 3 mps 770 mmHg 67%
    07:00 +5°C° 0 mm 3 mps 771 mmHg 65%
    08:00 +5°C° 0 mm 3 mps 771 mmHg 63%
    09:00 +8°C° 0 mm 3 mps 771 mmHg 56%
    10:00 +10°C° 0 mm 3 mps 772 mmHg 49%
    11:00 +13°C° 0 mm 2 mps 772 mmHg 43%
    12:00 +14°C° 0 mm 2 mps 772 mmHg 41%
    13:00 +14°C° 0 mm 2 mps 771 mmHg 39%
    14:00 +15°C° 0 mm 2 mps 771 mmHg 38%
    15:00 +13°C° 0 mm 2 mps 771 mmHg 43%
    16:00 +11°C° 0 mm 3 mps 772 mmHg 48%
    17:00 +9°C° 0 mm 3 mps 772 mmHg 53%
    18:00 +8°C° 0 mm 3 mps 772 mmHg 56%
    19:00 +8°C° 0 mm 3 mps 772 mmHg 59%
    20:00 +7°C° 0 mm 3 mps 773 mmHg 61%
    21:00 +7°C° 0 mm 3 mps 773 mmHg 63%
    22:00 +5°C° 0 mm 3 mps 773 mmHg 65%
    23:00 +5°C° 0 mm 3 mps 773 mmHg 67%

    Tomorrow, 18 December, Monday

    Time Temperature Precipitation Wind Pressure Humidity
    00:00 +5°C° 0 mm 3 mps 773 mmHg 67%
    01:00 +4°C° 0 mm 3 mps 773 mmHg 68%
    02:00 +4°C° 0 mm 3 mps 773 mmHg 69%
    03:00 +4°C° 0 mm 3 mps 773 mmHg 69%
    04:00 +4°C° 0 mm 3 mps 773 mmHg 69%
    05:00 +3°C° 0 mm 3 mps 773 mmHg 69%
    06:00 +4°C° 0 mm 3 mps 773 mmHg 67%
    07:00 +4°C° 0 mm 3 mps 773 mmHg 65%
    08:00 +5°C° 0 mm 3 mps 773 mmHg 63%
    09:00 +8°C° 0 mm 3 mps 773 mmHg 56%
    10:00 +10°C° 0 mm 3 mps 773 mmHg 49%
    11:00 +13°C° 0 mm 3 mps 773 mmHg 42%
    12:00 +13°C° 0 mm 3 mps 773 mmHg 41%
    13:00 +14°C° 0 mm 3 mps 772 mmHg 40%
    14:00 +16°C° 0 mm 3 mps 772 mmHg 38%
    15:00 +13°C° 0 mm 3 mps 772 mmHg 44%
    16:00 +11°C° 0 mm 3 mps 772 mmHg 50%
    17:00 +10°C° 0 mm 3 mps 772 mmHg 56%
    18:00 +9°C° 0 mm 3 mps 772 mmHg 58%
    19:00 +9°C° 0 mm 3 mps 772 mmHg 60%
    20:00 +8°C° 0 mm 3 mps 773 mmHg 62%
    21:00 +8°C° 0 mm 3 mps 772 mmHg 64%
    22:00 +8°C° 0 mm 3 mps 772 mmHg 66%
    23:00 +7°C° 0 mm 3 mps 772 mmHg 67%

    Day after tomorrow, 19 December, Tuesday

    Time Temperature Precipitation Wind Pressure Humidity
    00:00 +7°C° 0 mm 3 mps 772 mmHg 68%
    01:00 +7°C° 0 mm 3 mps 772 mmHg 69%
    02:00 +7°C° 0 mm 2 mps 772 mmHg 70%
    03:00 +7°C° 0 mm 2 mps 771 mmHg 70%
    04:00 +7°C° 0 mm 2 mps 771 mmHg 70%
    05:00 +7°C° 0 mm 2 mps 771 mmHg 70%
    06:00 +7°C° 0 mm 2 mps 771 mmHg 67%
    07:00 +8°C° 0 mm 2 mps 771 mmHg 65%
    08:00 +9°C° 0 mm 2 mps 772 mmHg 62%
    09:00 +12°C° 0 mm 2 mps 772 mmHg 55%
    10:00 +14°C° 0 mm 2 mps 772 mmHg 49%
    11:00 +17°C° 0 mm 2 mps 772 mmHg 42%
    12:00 +17°C° 0 mm 3 mps 771 mmHg 42%
    13:00 +18°C° 0 mm 3 mps 771 mmHg 43%
    14:00 +19°C° 0 mm 3 mps 770 mmHg 43%
    15:00 +17°C° 0 mm 3 mps 770 mmHg 50%
    16:00 +14°C° 0 mm 3 mps 770 mmHg 56%
    17:00 +14°C° 0 mm 2 mps 770 mmHg 63%
    18:00 +13°C° 0 mm 2 mps 771 mmHg 66%
    19:00 +13°C° 0 mm 2 mps 771 mmHg 70%
    20:00 +12°C° 0 mm 2 mps 771 mmHg 73%
    21:00 +12°C° 0 mm 2 mps 771 mmHg 76%
    22:00 +10°C° 0 mm 2 mps 771 mmHg 79%
    23:00 +10°C° 0 mm 2 mps 771 mmHg 83%

    20 December, Wednesday

    Time Temperature Precipitation Wind Pressure Humidity
    00:00 +10°C° 0 mm 2 mps 771 mmHg 84%
    01:00 +9°C° 0 mm 2 mps 771 mmHg 85%
    02:00 +9°C° 0 mm 3 mps 771 mmHg 86%
    03:00 +9°C° 0 mm 3 mps 771 mmHg 86%
    04:00 +8°C° 0 mm 3 mps 771 mmHg 86%
    05:00 +8°C° 0 mm 3 mps 771 mmHg 85%
    06:00 +9°C° 0 mm 3 mps 772 mmHg 83%
    07:00 +9°C° 0 mm 3 mps 772 mmHg 81%
    08:00 +9°C° 0 mm 3 mps 773 mmHg 79%
    09:00 +12°C° 0 mm 2 mps 773 mmHg 70%
    10:00 +15°C° 0 mm 2 mps 773 mmHg 61%
    11:00 +17°C° 0 mm 2 mps 773 mmHg 52%
    12:00 +18°C° 0 mm 1 mps 773 mmHg 50%
    13:00 +19°C° 0 mm 1 mps 772 mmHg 48%
    14:00 +20°C° 0 mm 1 mps 772 mmHg 47%
    15:00 +18°C° 0 mm 1 mps 772 mmHg 53%
    16:00 +15°C° 0 mm 1 mps 772 mmHg 59%
    17:00 +13°C° 0 mm 1 mps 772 mmHg 66%
    18:00 +12°C° 0 mm 1 mps 773 mmHg 68%
    19:00 +12°C° 0 mm 2 mps 773 mmHg 71%
    20:00 +10°C° 0 mm 2 mps 773 mmHg 74%
    21:00 +10°C° 0 mm 2 mps 773 mmHg 75%
    22:00 +9°C° 0 mm 2 mps 773 mmHg 75%
    23:00 +9°C° 0 mm 2 mps 773 mmHg 76%

    21 December, Thursday

    Time Temperature Precipitation Wind Pressure Humidity
    00:00 +9°C° 0 mm 2 mps 773 mmHg 74%
    01:00 +8°C° 0 mm 2 mps 773 mmHg 72%
    02:00 +8°C° 0 mm 2 mps 773 mmHg 71%
    03:00 +8°C° 0 mm 2 mps 773 mmHg 68%
    04:00 +7°C° 0 mm 2 mps 773 mmHg 66%
    05:00 +7°C° 0 mm 2 mps 773 mmHg 63%
    06:00 +7°C° 0 mm 2 mps 773 mmHg 61%
    07:00 +8°C° 0 mm 2 mps 774 mmHg 59%
    08:00 +8°C° 0 mm 2 mps 774 mmHg 57%
    09:00 +10°C° 0 mm 2 mps 775 mmHg 52%
    10:00 +13°C° 0 mm 2 mps 775 mmHg 46%
    11:00 +16°C° 0 mm 2 mps 775 mmHg 41%
    12:00 +16°C° 0 mm 2 mps 774 mmHg 40%
    13:00 +17°C° 0 mm 2 mps 774 mmHg 40%
    14:00 +19°C° 0 mm 1 mps 774 mmHg 39%
    15:00 +16°C° 0 mm 1 mps 774 mmHg 45%
    16:00 +14°C° 0 mm 1 mps 775 mmHg 51%
    17:00 +12°C° 0 mm 1 mps 775 mmHg 57%
    18:00 +12°C° 0 mm 1 mps 775 mmHg 59%
    19:00 +10°C° 0 mm 2 mps 776 mmHg 62%
    20:00 +10°C° 0 mm 2 mps 776 mmHg 65%
    21:00 +9°C° 0 mm 2 mps 776 mmHg 66%
    22:00 +9°C° 0 mm 2 mps 776 mmHg 67%
    23:00 +8°C° 0 mm 2 mps 776 mmHg 68%

    22 December, Friday

    Time Temperature Precipitation Wind Pressure Humidity
    00:00 +8°C° 0 mm 2 mps 776 mmHg 69%
    01:00 +8°C° 0 mm 2 mps 775 mmHg 70%
    02:00 +7°C° 0 mm 2 mps 775 mmHg 70%
    03:00 +7°C° 0 mm 2 mps 775 mmHg 71%
    04:00 +7°C° 0 mm 2 mps 775 mmHg 71%
    05:00 +7°C° 0 mm 2 mps 775 mmHg 72%
    06:00 +7°C° 0 mm 2 mps 775 mmHg 70%
    07:00 +8°C° 0 mm 2 mps 775 mmHg 69%
    08:00 +8°C° 0 mm 2 mps 776 mmHg 68%
    09:00 +10°C° 0 mm 2 mps 775 mmHg 61%
    10:00 +14°C° 0 mm 2 mps 775 mmHg 54%
    11:00 +16°C° 0 mm 2 mps 775 mmHg 47%
    12:00 +17°C° 0 mm 2 mps 774 mmHg 46%
    13:00 +17°C° 0 mm 3 mps 774 mmHg 45%
    14:00 +18°C° 0 mm 3 mps 773 mmHg 44%
    15:00 +16°C° 0 mm 3 mps 773 mmHg 51%
    16:00 +13°C° 0 mm 3 mps 774 mmHg 58%
    17:00 +11°C° 0 mm 3 mps 774 mmHg 65%
    18:00 +11°C° 0 mm 3 mps 774 mmHg 67%
    19:00 +10°C° 0 mm 3 mps 774 mmHg 69%
    20:00 +10°C° 0 mm 3 mps 774 mmHg 72%
    21:00 +9°C° 0 mm 3 mps 774 mmHg 71%
    22:00 +9°C° 0 mm 3 mps 774 mmHg 70%
    23:00 +8°C° 0 mm 4 mps 774 mmHg 69%
    Show more